Regional Weather Roundup
Issued by NWS

Home | Current Version | Previous Version | Graphics & Text | Print | Product List | Glossary On
Versions: 1 2 3 4 5 6 7 8 9 10 11 12 13 14 15 16 17 18 19 20 21 22 23 24 25 26 27 28 29 30 31 32 33 34 35 36 37 38 39 40 41 42 43 44 45 46 47 48 49 50
000
ASUS43 KMKX 271021
RWRWI

WISCONSIN REGIONAL WEATHER ROUNDUP
NATIONAL WEATHER SERVICE MILWAUKEE/SULLIVAN WI
400 AM CST MON FEB 27 2017

NOTE: "FAIR" INDICATES FEW OR NO CLOUDS BELOW 12,000 FEET WITH NO
SIGNIFICANT WEATHER AND/OR OBSTRUCTIONS TO VISIBILITY.

WIZ001-002-006>008-014>016-023>028-271100-
NORTHWEST WISCONSIN

CITY           SKY/WX    TMP DP  RH WIND       PRES   REMARKS
SUPERIOR ARPT  CLOUDY    15   8  74 CALM      29.98F
ASHLAND        CLOUDY    14   9  80 CALM      30.00S
HAYWARD        CLOUDY    20  11  68 CALM      29.95F
SIREN          LGT SNOW  23  18  82 CALM      29.96S
CUMBERLAND     CLOUDY    25  18  74 CALM      29.94F
RICE LAKE      CLOUDY    25  17  72 E3        29.97F
CHETEK         CLOUDY    24  15  69 SE5       29.97R WCI  18
LADYSMITH      CLOUDY    24  13  65 E5        29.98F WCI  18
EAU CLAIRE     PTCLDY    23  19  85 S6        29.98S WCI  16
MENOMONIE      MOCLDY    21  17  86 SE5       29.98S WCI  14
NEW RICHMOND   CLOUDY    26  21  82 SE6       29.95S WCI  19
OSCEOLA        CLOUDY    28  20  74 SE5       29.97S WCI  22
$$

WIZ003>005-009-010-017-018-271100-
NORTH CENTRAL WISCONSIN

CITY           SKY/WX    TMP DP  RH WIND       PRES   REMARKS
MANITOWISH WTR CLOUDY     2   0  91 CALM      29.96S
ARBOR VITAE    CLOUDY    11   8  88 CALM        N/A
WOODRUFF       CLOUDY    11   8  88 CALM        N/A
RHINELANDER    CLOUDY   N/A N/A N/A CALM      29.97F
EAGLE RIVER    PTCLDY     0  -5  80 CALM      29.98S
LAND O LAKES   PTCLDY    -6 -10  82 CALM      29.99S
PHILLIPS       CLOUDY    15   9  78 CALM      29.96S
TOMAHAWK       CLOUDY    13  10  90 CALM      29.98F
MEDFORD        CLOUDY    21  13  72 S6        29.98S WCI  13
MERRILL        NOT AVBL
$$

WIZ029-030-035-036-043>047-271100-
CENTRAL WISCONSIN

CITY           SKY/WX    TMP DP  RH WIND       PRES   REMARKS
WAUSAU         CLOUDY    22  17  81 E3        30.00R
MOSINEE        CLOUDY    21  21 100 S6        30.02R WCI  14
MARSHFIELD     CLOUDY    23  20  88 SE3       29.99S
STEVENS POINT  CLOUDY    20  20 100 CALM      30.03R
WAUPACA        MOCLDY    20  18  90 CALM      30.06R
WAUTOMA        CLEAR     17  15  92 CALM      30.06
WISC RAPIDS    CLOUDY    22  21  96 S3        30.03S
CAMP DOUGLAS   CLEAR     22  20  91 CALM      30.03R
$$

WIZ011>013-019>022-031-037>040-048>050-271100-
NORTHEAST WISCONSIN

CITY           SKY/WX    TMP DP  RH WIND       PRES   REMARKS
ANTIGO         CLOUDY    15  12  85 CALM      30.00R
SHAWANO        CLOUDY    22  16  78 E3        30.06S
OCONTO         PTCLDY    18  14  82 CALM      30.08R
STURGEON BAY   CLEAR     21  15  78 CALM      30.08R
GREEN BAY      CLEAR     23  15  71 NE6       30.07S WCI  16
MANITOWOC      CLEAR     23  20  88 VRB3      30.09R
APPLETON       CLEAR     23  18  80 CALM      30.04S
CLINTONVILLE   MOCLDY    19  18  93 CALM      30.05S
OSHKOSH        CLEAR     24  19  81 S5        30.06R WCI  18
$$

WIZ032>034-041-042-053>061-271100-
SOUTHWEST WISCONSIN

CITY           SKY/WX    TMP DP  RH WIND       PRES   REMARKS
LA CROSSE      CLEAR     26  23  88 SE7       30.03S WCI  18
SPARTA         CLEAR     16  15  98 CALM      30.04S
VIROQUA        CLEAR     22  21  95 S8        30.01F WCI  13
BOSCOBEL       CLEAR     20  17  88 CALM      30.07S FOG
PRAIRIE DU CHI CLEAR     24  22  93 SE3       30.06S
PLATTEVILLE    CLEAR     25  24  95 SE6       30.06R WCI  18
$$

WIZ056-057-062-063-064-067-068-271100-
SOUTH CENTRAL WISCONSIN

CITY           SKY/WX    TMP DP  RH WIND       PRES   REMARKS
REEDSBURG      CLEAR     23  22  98 CALM      30.05S
BARABOO/DELLS  CLEAR     21  19  89 S6        30.05S WCI  14
LONE ROCK      CLEAR     22  19  89 E3        30.08R
MINERAL POINT  PTCLDY    28  28 100 CALM      30.04S
MADISON        CLEAR     23  20  88 CALM      30.06F
MIDDLETON      CLEAR     26  24  93 CALM      30.06F
WATERTOWN      CLEAR     22  22 100 CALM      30.07S
MONROE         PTCLDY    28  25  86 CALM      30.06R
JANESVILLE     PTCLDY    27  27 100 CALM      30.08S
$$

WIZ051-052-058>065-066-070>072-271100-
SOUTHEAST WISCONSIN

CITY           SKY/WX    TMP DP  RH WIND       PRES   REMARKS
MILWAUKEE      CLEAR     26  19  74 CALM      30.09R
WAUKESHA       CLEAR     23  19  86 CALM      30.09S
MILWAUKEE/TIMM PTCLDY    27  21  80 CALM      30.10R
RACINE         CLEAR     28  24  85 W5        30.11S WCI  23
KENOSHA        PTCLDY    28  23  81 CALM      30.10R
FOND DU LAC    CLEAR     24  18  77 S5        30.08R WCI  18
SHEBOYGAN      CLEAR     25  20  81 SW5       30.08R WCI  19
WEST BEND      CLEAR     25  23  93 CALM      30.08R
JUNEAU         CLEAR     27  23  85 CALM      30.08S
$$

LSZ147-162-271100-
LAKE SUPERIOR

STATION/POSITION TIME  TEMP    WIND        PRES    WAVE
                       AIR SEA DIR/SP/G            HT/PER
                 (UTC) (F)     (DEG/KT/KT) (MB)    (FT/S)
DEVILS ISLAND    1000   23     210/  7/ 10 1016.9R
PORT WING        0930   15     140/  2/  4 1015.6S
SAXON HARBOR     0930   11     200/  5/  6 1015.9S
$$

LMZ867-665-643>646-271100-
LAKE MICHIGAN

STATION/POSITION TIME  TEMP    WIND        PRES    WAVE
                       AIR SEA DIR/SP/G            HT/PER
                 (UTC) (F)     (DEG/KT/KT) (MB)    (FT/S)
CHAMBERS ISLAND  0940   22      CALM  /  2 1017.9R
NORTHPORT PIER   1002   22      CALM  / 10 1018.6
SISTER BAY       0935   21        CALM       N/A
KEWAUNEE LAKESHO 0954   24     300/  1/  3 1018.3R
SHEBOYGAN LAKESH 1000   30     250/  5/  6 1019.4R
PORT WASHINGTON  0930   31     290/  4/  7 1019.6R
MILWAUKEE LAKESH 0950   33     300/  4/  4   N/A
KENOSHA   LAKESH 1000   33     280/  6/  7 1019.3
$$

TC  - TEMPERATURE IN CELSIUS
VSB - VISIBILITY IN STATUTE MILES
WCI - WIND CHILL INDEX
HX  - HEAT INDEX





USA.gov is the U.S. government's official web portal to all federal, state and local government web resources and services.